TimeEEST,TemperatureF,Dew PointF,Humidity,Sea Level PressureIn,VisibilityMPH,Wind Direction,Wind SpeedMPH,Gust SpeedMPH,PrecipitationIn,Events,Conditions,WindDirDegrees,DateUTC
12:20 AM,55.4,46.4,72,29.89,-9999.0,Calm,Calm,-,N/A,,Clear,0,2013-03-30 22:20:00
12:50 AM,57.2,46.4,67,29.89,4.3,Variable,1.2,-,N/A,,Unknown,0,2013-03-30 22:50:00
1:20 AM,62.6,48.2,59,29.89,3.7,Variable,3.5,-,N/A,,Unknown,0,2013-03-30 23:20:00
1:50 AM,60.8,46.4,59,29.86,3.7,Variable,2.3,-,N/A,,Unknown,0,2013-03-30 23:50:00
2:00 AM,62,48,49,29.88,4,ESE,2.3,,,,Mist,120,2013-03-31 00:00:00
2:20 AM,57.2,46.4,67,29.86,3.7,ESE,3.5,-,N/A,,Unknown,110,2013-03-31 00:20:00
2:50 AM,57.2,48.2,72,29.86,3.7,East,3.5,-,N/A,,Unknown,80,2013-03-31 00:50:00
4:20 AM,57.2,48.2,72,29.86,3.7,Variable,2.3,-,N/A,,Unknown,0,2013-03-31 01:20:00
4:50 AM,55.4,46.4,72,29.86,2.5,Variable,2.3,-,N/A,,Mist,0,2013-03-31 01:50:00
5:20 AM,53.6,46.4,77,29.86,2.5,Variable,1.2,-,N/A,,Mist,0,2013-03-31 02:20:00
5:50 AM,57.2,46.4,67,29.83,2.5,Calm,Calm,-,N/A,,Mist,0,2013-03-31 02:50:00
6:20 AM,59.0,44.6,59,29.83,2.5,Calm,Calm,-,N/A,,Mist,0,2013-03-31 03:20:00
6:50 AM,62.6,44.6,52,29.83,-9999.0,ENE,3.5,-,N/A,,Clear,70,2013-03-31 03:50:00
7:20 AM,62.6,44.6,52,29.83,-9999.0,Variable,3.5,-,N/A,,Clear,0,2013-03-31 04:20:00
7:50 AM,62.6,46.4,55,29.83,-9999.0,Variable,2.3,-,N/A,,Clear,0,2013-03-31 04:50:00
8:20 AM,66.2,44.6,46,29.83,-9999.0,Variable,2.3,-,N/A,,Clear,0,2013-03-31 05:20:00
8:50 AM,66.2,44.6,46,29.83,-9999.0,SSE,4.6,-,N/A,,Clear,150,2013-03-31 05:50:00
9:00 AM,65,45,38,29.85,6,SSE,4.6,,,,,150,2013-03-31 06:00:00
9:20 AM,66.2,44.6,46,29.86,-9999.0,Variable,3.5,-,N/A,,Clear,0,2013-03-31 06:20:00
9:50 AM,68.0,44.6,43,29.83,-9999.0,Variable,2.3,-,N/A,,Clear,0,2013-03-31 06:50:00
10:20 AM,68.0,44.6,43,29.83,-9999.0,East,4.6,-,N/A,,Clear,100,2013-03-31 07:20:00
10:50 AM,69.8,44.6,40,29.83,-9999.0,Variable,2.3,-,N/A,,Clear,0,2013-03-31 07:50:00
11:20 AM,69.8,44.6,40,29.83,-9999.0,ESE,4.6,-,N/A,,Clear,110,2013-03-31 08:20:00
11:50 AM,71.6,46.4,41,29.80,-9999.0,East,4.6,-,N/A,,Clear,100,2013-03-31 08:50:00
12:20 PM,71.6,44.6,38,29.80,-9999.0,East,6.9,-,N/A,,Clear,100,2013-03-31 09:20:00
12:50 PM,73.4,44.6,36,29.80,-9999.0,ESE,5.8,-,N/A,,Clear,110,2013-03-31 09:50:00
1:20 PM,75.2,42.8,31,29.80,-9999.0,Variable,2.3,-,N/A,,Clear,0,2013-03-31 10:20:00
1:50 PM,75.2,42.8,31,29.77,-9999.0,SW,3.5,-,N/A,,Clear,220,2013-03-31 10:50:00
2:20 PM,77.0,42.8,29,29.77,-9999.0,SW,3.5,-,N/A,,Clear,220,2013-03-31 11:20:00
2:50 PM,75.2,42.8,31,29.77,-9999.0,SW,4.6,-,N/A,,Clear,230,2013-03-31 11:50:00
3:00 PM,76,43,21,29.77,6,SW,4.6,,,,,230,2013-03-31 12:00:00
3:20 PM,77.0,41.0,28,29.77,-9999.0,SW,5.8,-,N/A,,Clear,230,2013-03-31 12:20:00
3:50 PM,75.2,42.8,31,29.77,-9999.0,SW,4.6,-,N/A,,Clear,220,2013-03-31 12:50:00
4:20 PM,77.0,44.6,32,29.74,-9999.0,SSW,3.5,-,N/A,,Clear,200,2013-03-31 13:20:00
4:50 PM,75.2,41.0,29,29.74,-9999.0,Variable,2.3,-,N/A,,Clear,0,2013-03-31 13:50:00
5:20 PM,75.2,42.8,31,29.74,-9999.0,SSE,4.6,-,N/A,,Clear,150,2013-03-31 14:20:00
5:50 PM,75.2,41.0,29,29.74,-9999.0,ESE,4.6,-,N/A,,Clear,120,2013-03-31 14:50:00
6:20 PM,75.2,41.0,29,29.74,-9999.0,Variable,1.2,-,N/A,,Clear,0,2013-03-31 15:20:00
6:50 PM,73.4,42.8,33,29.74,-9999.0,Variable,2.3,-,N/A,,Clear,0,2013-03-31 15:50:00
7:20 PM,71.6,41.0,33,29.74,-9999.0,WSW,4.6,-,N/A,,Clear,240,2013-03-31 16:20:00
7:50 PM,69.8,41.0,35,29.74,-9999.0,West,5.8,-,N/A,,Clear,260,2013-03-31 16:50:00
8:20 PM,68.0,41.0,37,29.74,-9999.0,West,6.9,-,N/A,,Clear,260,2013-03-31 17:20:00
8:50 PM,68.0,42.8,40,29.77,-9999.0,WSW,9.2,-,N/A,,Clear,250,2013-03-31 17:50:00
9:00 PM,67,41,28,29.77,6,WSW,9.2,,,,,250,2013-03-31 18:00:00
9:20 PM,66.2,46.4,49,29.77,-9999.0,WNW,4.6,-,N/A,,Clear,300,2013-03-31 18:20:00
9:50 PM,66.2,46.4,49,29.77,-9999.0,WNW,4.6,-,N/A,,Clear,290,2013-03-31 18:50:00
10:20 PM,64.4,48.2,56,29.77,-9999.0,West,2.3,-,N/A,,Clear,280,2013-03-31 19:20:00
10:50 PM,59.0,46.4,63,29.77,-9999.0,Variable,2.3,-,N/A,,Clear,0,2013-03-31 19:50:00
11:20 PM,60.8,48.2,63,29.77,-9999.0,Variable,1.2,-,N/A,,Clear,0,2013-03-31 20:20:00
11:50 PM,59.0,48.2,67,29.77,6.2,South,3.5,-,N/A,,Scattered Clouds,180,2013-03-31 20:50:00
12:20 AM,57.2,48.2,72,29.77,6.2,SE,3.5,-,N/A,,Scattered Clouds,140,2013-03-31 21:20:00
12:50 AM,59.0,50.0,72,29.77,6.2,Variable,2.3,-,N/A,,Scattered Clouds,0,2013-03-31 21:50:00